Location: Ecklingerode
(51.5036°N, 10.3122°E)
Time: 01:44:09
(UTC+00:00)

ARGOS - Pass Details

Date: 29 October 2020
Orbit: 820 x 835 km, 98.4° (Epoch: 23 November)

Event Time Altitude Azimuth Distance (km) Brightness Sun altitude
Exits shadow 18:17:20 24° 157° (SSE) 1,664 4.5 -22.4°
Maximum altitude 18:20:43 81° 73° (ENE) 852 3.0 -22.9°
Drops below altitude 10° 18:26:11 10° 347° (NNW) 2,459 5.8 -23.7°
Sets 18:28:33 0° 346° (NNW) 3,397 6.6 -24.1°
